TimeEDT,TemperatureF,Dew PointF,Humidity,Sea Level PressureIn,VisibilityMPH,Wind Direction,Wind SpeedMPH,Gust SpeedMPH,PrecipitationIn,Events,Conditions,WindDirDegrees,DateUTC
12:15 AM,39.2,37.4,93,29.67,10.0,Calm,Calm,-,N/A,,Clear,0,2012-11-01 04:15:00
12:35 AM,39.2,39.2,100,29.67,10.0,Calm,Calm,-,N/A,,Clear,0,2012-11-01 04:35:00
12:55 AM,37.4,37.4,100,29.68,10.0,Calm,Calm,-,N/A,,Clear,0,2012-11-01 04:55:00
1:15 AM,37.4,37.4,100,29.68,10.0,Calm,Calm,-,N/A,,Clear,0,2012-11-01 05:15:00
1:35 AM,37.4,37.4,100,29.68,10.0,Calm,Calm,-,N/A,,Clear,0,2012-11-01 05:35:00
1:55 AM,37.4,35.6,93,29.68,3.0,Calm,Calm,-,N/A,,Clear,0,2012-11-01 05:55:00
2:15 AM,37.4,37.4,100,29.67,10.0,SSE,3.5,-,N/A,,Scattered Clouds,150,2012-11-01 06:15:00
2:35 AM,37.4,37.4,100,29.67,10.0,Calm,Calm,-,N/A,,Mostly Cloudy,0,2012-11-01 06:35:00
3:15 AM,37.4,37.4,100,29.67,10.0,SSE,3.5,-,N/A,,Overcast,150,2012-11-01 07:15:00
3:35 AM,39.2,39.2,100,29.67,10.0,Calm,Calm,-,N/A,,Overcast,0,2012-11-01 07:35:00
3:55 AM,39.2,39.2,100,29.67,10.0,Calm,Calm,-,N/A,,Overcast,0,2012-11-01 07:55:00
4:15 AM,39.2,39.2,100,29.67,10.0,Calm,Calm,-,N/A,,Overcast,0,2012-11-01 08:15:00
4:35 AM,39.2,39.2,100,29.67,10.0,Calm,Calm,-,N/A,,Overcast,0,2012-11-01 08:35:00
5:15 AM,39.2,37.4,93,29.67,10.0,Calm,Calm,-,N/A,,Overcast,0,2012-11-01 09:15:00
5:35 AM,39.2,37.4,93,29.67,10.0,Calm,Calm,-,N/A,,Mostly Cloudy,0,2012-11-01 09:35:00
6:15 AM,41.0,39.2,93,29.68,10.0,Calm,Calm,-,N/A,,Overcast,0,2012-11-01 10:15:00
6:35 AM,41.0,39.2,93,29.68,10.0,Calm,Calm,-,N/A,,Overcast,0,2012-11-01 10:35:00
6:55 AM,41.0,39.2,93,29.68,10.0,Calm,Calm,-,N/A,,Overcast,0,2012-11-01 10:55:00
7:15 AM,41.0,39.2,93,29.68,10.0,SE,4.6,-,N/A,,Overcast,140,2012-11-01 11:15:00
7:35 AM,41.0,39.2,93,29.69,10.0,Calm,Calm,-,N/A,,Overcast,0,2012-11-01 11:35:00
7:55 AM,41.0,41.0,100,29.69,10.0,Calm,Calm,-,N/A,,Overcast,0,2012-11-01 11:55:00
8:46 AM,42.8,41.0,93,29.70,10.0,Calm,Calm,-,N/A,,Overcast,0,2012-11-01 12:46:00
9:50 AM,42.8,41.0,93,29.71,10.0,Calm,Calm,-,N/A,,Overcast,0,2012-11-01 13:50:00
10:45 AM,44.6,42.8,93,29.72,10.0,Calm,Calm,-,N/A,,Overcast,0,2012-11-01 14:45:00
11:55 AM,48.2,41.0,76,29.72,10.0,Calm,Calm,-,N/A,,Overcast,0,2012-11-01 15:55:00
2:45 PM,51.8,39.2,62,29.68,10.0,Calm,Calm,-,N/A,,Overcast,0,2012-11-01 18:45:00
4:45 PM,51.8,37.4,58,29.69,10.0,NW,8.1,-,N/A,,Partly Cloudy,310,2012-11-01 20:45:00
6:15 PM,48.2,39.2,71,29.71,10.0,NNW,4.6,-,N/A,,Scattered Clouds,340,2012-11-01 22:15:00
6:35 PM,48.2,39.2,71,29.72,10.0,NNW,4.6,-,N/A,,Scattered Clouds,330,2012-11-01 22:35:00
6:55 PM,48.2,39.2,71,29.72,10.0,NNW,3.5,-,N/A,,Mostly Cloudy,340,2012-11-01 22:55:00
7:15 PM,48.2,39.2,71,29.73,10.0,NW,3.5,-,N/A,,Mostly Cloudy,320,2012-11-01 23:15:00
7:35 PM,48.2,42.8,82,29.73,10.0,NW,3.5,-,N/A,,Overcast,320,2012-11-01 23:35:00
7:45 PM,46.4,42.8,87,29.74,10.0,NNW,3.5,-,N/A,,Overcast,340,2012-11-01 23:45:00
7:55 PM,46.4,42.8,87,29.74,10.0,NNW,3.5,-,N/A,,Overcast,330,2012-11-01 23:55:00
8:15 PM,46.4,42.8,87,29.74,10.0,NNW,4.6,-,N/A,,Overcast,330,2012-11-02 00:15:00
8:35 PM,48.2,37.4,66,29.74,10.0,NW,9.2,-,N/A,,Overcast,310,2012-11-02 00:35:00
8:55 PM,48.2,37.4,66,29.74,10.0,NW,5.8,-,N/A,,Mostly Cloudy,310,2012-11-02 00:55:00
9:15 PM,46.4,37.4,71,29.75,10.0,NNW,4.6,-,N/A,,Mostly Cloudy,330,2012-11-02 01:15:00
9:35 PM,46.4,37.4,71,29.75,10.0,Calm,Calm,-,N/A,,Mostly Cloudy,0,2012-11-02 01:35:00
9:55 PM,44.6,37.4,76,29.76,10.0,WSW,3.5,-,N/A,,Clear,250,2012-11-02 01:55:00
10:15 PM,42.8,39.2,87,29.76,10.0,Calm,Calm,-,N/A,,Clear,0,2012-11-02 02:15:00
10:35 PM,39.2,37.4,93,29.77,10.0,Calm,Calm,-,N/A,,Clear,0,2012-11-02 02:35:00
10:55 PM,39.2,37.4,93,29.77,10.0,Calm,Calm,-,N/A,,Clear,0,2012-11-02 02:55:00
11:15 PM,39.2,37.4,93,29.77,10.0,Calm,Calm,-,N/A,,Clear,0,2012-11-02 03:15:00
11:35 PM,39.2,37.4,93,29.77,10.0,Calm,Calm,-,N/A,,Clear,0,2012-11-02 03:35:00
11:55 PM,37.4,37.4,100,29.77,10.0,Calm,Calm,-,N/A,,Clear,0,2012-11-02 03:55:00